Location: Assche-ter-Heiden
(50.9174°N, 4.1574°E)
Time: 09:36:41
(UTC+00:00)

Cosmos 44 Rocket - Pass Details

Date: 20 January 2020
Orbit: 660 x 730 km, 65.1° (Epoch: 27 February)

Event Time Altitude Azimuth Distance (km) Brightness Sun altitude
Exits shadow 05:08:02 44° 210° (SSW) 924 3.7 -22.8°
Drops below altitude 10° 05:11:53 10° 165° (SSE) 2,094 6.0 -22.1°
Sets 05:14:16 0° 159° (SSE) 3,013 6.9 -21.8°
